Location: Dankelsheim
(51.9008°N, 10.0099°E)
Time: 20:04:55
(UTC+00:00)

Daily predictions for brighter satellites

Satellite Brightness Start Highest point End
(mag) Time Altitude Azimuth Time Altitude Azimuth Time Altitude Azimuth
Resurs 1-3 4.3 18:06:17 10° SE 18:10:14 34° ENE 18:14:11 10° N
Cosmos 1624 Rocket 4.2 18:06:07 10° S 18:11:16 55° ESE 18:16:29 10° NNE
Cosmos 1470 Rocket 3.6 18:07:53 10° S 18:12:21 73° E 18:16:50 10° NNE
Cosmos 2016 Rocket 4.3 18:06:48 10° N 18:12:41 46° ENE 18:18:32 10° SE
NOSS 0 Rocket 4.1 18:07:22 10° NNW 18:13:30 57° NE 18:19:34 10° SE
Cosmos 1420 Rocket 4.1 18:12:30 10° S 18:17:37 58° ESE 18:22:44 10° NNE
Cosmos 2173 Rocket 4.1 18:11:32 10° N 18:17:56 74° ENE 18:24:19 10° SSE
Cosmos 2123 Rocket 4.4 18:13:19 10° SSE 18:19:06 40° E 18:24:56 10° NNE
Okean-O 3.4 18:16:24 10° SE 18:20:19 32° ENE 18:24:16 10° N
SPOT 1/Viking Rocket 4.4 18:16:41 10° ESE 18:21:11 31° ENE 18:25:42 10° N
Okean 2 4.1 18:17:29 10° N 18:21:11 32° ENE 18:24:52 10° SE
Cosmos 1263 4.2 18:18:25 10° S 18:21:51 72° E 18:24:52 10° NNE
Timation 1 Rocket 4.5 18:17:48 10° S 18:23:37 53° ESE 18:29:28 10° NE
Cosmos 1000 Rocket 4.5 18:18:56 10° S 18:24:57 63° E 18:31:02 10° NNE
DMSP B5D1-3 4.5 18:22:14 10° NNE 18:27:26 75° ESE 18:32:34 10° S
Cosmos 2242 Rocket 3.8 18:23:57 10° N 18:28:27 52° ENE 18:32:54 10° SSE
Cosmos 2100 Rocket 4.1 18:22:03 10° N 18:28:29 89° E 18:34:50 10° S
Okean O Rocket 1.6 18:24:07 10° SSE 18:28:33 87° ENE 18:32:58 10° NNW
GEOS 3 Rocket 3.8 18:23:46 10° NE 18:29:07 60° SE 18:34:26 10° SSW
YAOGAN 1 3.7 18:26:36 10° S 18:30:47 48° W 18:35:00 10° NNW
USA 215 3.4 18:25:51 10° ENE 18:32:26 83° NNW 18:38:59 10° WSW
ISS -3.8 18:29:28 10° WSW 18:32:49 78° S 18:35:45 13° E
CSL-04 Rocket 3.8 18:27:33 10° SE 18:32:59 58° ENE 18:38:25 10° N
Cosmos 676 Rocket 4.4 18:28:29 10° NNW 18:33:41 69° WSW 18:38:53 10° SSE
KORONAS-FOTON 4.1 18:30:49 10° NNW 18:34:37 71° W 18:38:25 10° S
SL-27 R/B 2.1 18:32:24 10° SSW 18:35:41 69° ESE 18:38:55 10° NNE
Cosmos 1452 Rocket 4.2 18:31:18 10° SSE 18:35:53 31° ESE 18:40:30 10° NE
Cosmos 2237 Rocket 2.5 18:32:43 10° NNW 18:38:16 51° NE 18:43:20 12° SE
Exosat Rocket 3.8 18:36:48 10° SSW 18:42:02 77° ESE 18:48:54 10° NNE
USA 186 1.6 18:41:55 10° SSE 18:45:00 79° ENE 18:48:08 10° N
Meteor 1-21 4.4 18:42:03 10° NNW 18:47:41 76° W 18:53:18 10° S
Okean 3 4.3 18:43:35 10° NNW 18:47:41 52° W 18:51:48 10° S
H-2A R/B 4.3 18:47:34 14° E 18:49:25 18° ENE 18:52:27 10° NNE
Cosmos 1741 Rocket 4.0 18:44:14 10° NNW 18:49:28 69° ENE 18:54:38 10° SSE
Cosmos 1707 4.2 18:49:13 10° NNW 18:52:46 38° W 18:56:18 10° SSW
Cosmos 968 Rocket 4.1 18:49:16 10° NNW 18:54:07 39° NE 18:57:25 18° ESE
Okean 1-7 4.1 18:50:02 10° NNW 18:54:14 47° W 18:58:25 10° SSW
CZ-4B R/B 4.3 18:49:06 10° S 18:54:34 48° W 19:00:02 10° NNW
IRS-1C Rocket 4.2 18:50:37 10° SE 18:55:46 58° ENE 19:00:58 10° N
Cosmos 1674 4.0 18:53:40 10° NNW 18:57:11 41° W 19:00:42 10° SSW
SJ 16-02 3.4 18:55:39 10° NNE 18:57:43 13° NE 18:59:20 11° ENE
Lacrosse 5 rocket 2.8 18:56:14 10° S 18:59:08 19° SE 18:59:08 19° SE
Cosmos 1805 3.3 18:55:35 10° S 18:59:16 51° E 19:03:00 10° NNE
Cosmos 1980 3.7 18:53:57 10° NNW 18:59:39 72° ENE 19:04:23 15° SE
Cosmos 2219 Rocket 3.7 18:55:29 10° NW 19:00:37 36° WSW 19:05:44 10° S
Cosmos 2333 Rocket 4.5 18:57:47 10° NW 19:02:23 25° WSW 19:06:59 10° SSW
Cosmos 1933 Rocket 4.1 18:59:25 10° SSW 19:03:41 62° WNW 19:08:01 10° N
Cosmos 1975 3.0 18:59:47 10° SSW 19:03:43 74° W 19:07:44 10° N
SJ-6B 3.4 19:00:03 10° S 19:03:55 57° W 19:07:44 10° NNW
ERS-1 Rocket 4.5 19:04:51 17° E 19:06:34 20° NE 19:10:07 10° N
Cosmos 2233 Rocket 3.9 19:01:01 10° N 19:07:11 70° ENE 19:13:21 10° SSE
Cosmos 1726 1.9 19:05:15 10° S 19:08:43 63° E 19:12:13 10° NNE
CSL-04 Debris 4.4 19:04:00 10° S 19:09:24 73° WSW 19:14:53 10° NNW
Cosmos 2061 Rocket 4.1 19:04:51 10° N 19:11:21 89° W 19:17:47 10° S
Ariane Rocket 3.9 19:09:42 22° ESE 19:11:54 31° ENE 19:16:20 10° N
Cosmos 1869 Rocket 3.5 19:08:57 10° S 19:13:16 90° E 19:17:38 10° N
COSMOS 2428 3.7 19:08:24 10° NW 19:13:51 46° WSW 19:19:17 10° S
Landsat 5 3.6 19:10:47 10° NNE 19:14:26 41° E 19:17:14 16° SSE
Cosmos 1900 4.3 19:09:28 10° SW 19:14:26 90° NW 19:19:23 10° NE
SL-14 R/B 3.2 19:12:00 10° NNW 19:15:52 82° W 19:19:23 12° S
USA 281 4.1 19:13:08 10° NNE 19:19:29 52° NW 19:25:48 10° SW
Cosmos 2297 Rocket 2.5 19:16:31 10° S 19:21:47 43° ESE 19:27:06 10° NE
ATLAS 3B R/B 4.2 19:16:57 10° WNW 19:23:27 33° N 19:30:14 10° ENE
IRS-1A Rocket 4.5 19:20:53 22° SE 19:24:43 58° ENE 19:30:28 10° N
NOSS 6 (F) 4.5 19:21:56 10° NW 19:24:51 79° NE 19:25:27 53° ESE
Cosmos 1867 3.6 19:20:09 10° SSW 19:25:25 54° ESE 19:30:45 10° NE
Cosmos 1725 Rocket 4.5 19:22:15 10° NNW 19:28:21 61° W 19:34:25 10° S
Resurs 01 Rocket 1.5 19:25:55 20° SSE 19:28:56 85° ENE 19:33:23 10° NNW
Meteor 2-5 Rocket 4.3 19:24:13 10° N 19:29:43 42° ENE 19:32:00 30° ESE
CENTAUR R/B 4.0 19:24:28 10° NW 19:32:14 49° WSW 19:40:46 10° S
CZ-4C R/B 3.3 19:25:53 10° NW 19:32:16 49° NNE 19:36:50 24° E
NOSS 3-2 (C) 4.2 19:25:13 10° NW 19:32:32 73° SW 19:38:47 20° SSE
Cosmos 1733 3.9 19:29:45 10° SSW 19:33:27 53° WNW 19:37:10 10° N
SPOT 3 Rocket 4.3 19:32:02 29° E 19:33:35 36° ENE 19:38:19 10° N
Cosmos 1271 Rocket 3.3 19:36:58 36° ENE 19:36:58 36° ENE 19:39:46 10° NNE
MOS 1 4.2 19:33:10 21° SSE 19:37:08 80° ENE 19:42:53 10° NNW
Cosmos 2227 Rocket 2.7 19:35:03 24° SSE 19:37:38 36° ESE 19:42:45 10° NE
CZ-4 R/B 4.2 19:35:57 10° SW 19:38:20 16° W 19:40:47 10° NW
Cosmos 1470 4.3 19:40:39 22° NE 19:40:39 22° NE 19:42:30 10° NNE
Iridium 4 Rocket 4.2 19:37:59 10° NNW 19:41:58 41° W 19:45:52 10° SSW
Terra 2.8 19:42:45 28° ENE 19:43:10 28° ENE 19:47:11 10° N
Geosat 4.5 19:40:50 20° S 19:44:13 57° WSW 19:49:12 10° NW
USA 238 DEB 4.0 19:38:58 10° NW 19:46:12 73° SW 19:50:50 26° SSE
USA 238 4.0 19:39:04 10° NW 19:46:18 73° SW 19:50:55 26° SSE
SL-16 R/B 2.4 19:42:06 10° NNW 19:47:44 57° NE 19:49:39 39° ESE
MetOp-A 4.0 19:46:21 31° SSE 19:48:57 81° ENE 19:54:09 10° NNW
Cosmos 1674 Rocket 3.4 19:47:22 10° N 19:51:45 76° E 19:52:41 53° SSE
Cosmos 1733 Rocket 2.9 19:53:01 25° S 19:55:27 89° E 19:59:49 10° N
Okean-O 4.1 19:52:38 10° SSW 19:56:43 36° W 20:00:50 10° NNW
CARTOSAT-1 3.6 19:58:45 42° S 20:00:07 75° WSW 20:04:27 10° NNW
SPOT 1/Viking Rocket 4.3 19:55:57 13° S 20:00:24 50° W 20:05:29 10° NNW
Meteor 2-13 Rocket 4.3 19:54:14 10° S 20:00:24 83° E 20:06:36 10° NNE
Cosmos 1110 Rocket 4.0 19:57:23 10° SSW 20:02:36 78° WNW 20:07:49 10° NNE
SPOT 5 2.8 20:02:23 54° E 20:02:51 57° ENE 20:07:37 10° N
Cosmos 1378 Rocket 3.5 19:58:32 10° NNW 20:02:58 82° W 20:04:03 51° S
Cosmos 2221 Rocket 3.7 19:59:36 10° NNW 20:04:02 70° W 20:05:26 42° SSW
Cosmos 1464 Rocket 4.0 19:59:56 10° N 20:06:17 68° ENE 20:08:27 43° SE
USA 245 3.9 20:08:40 42° NNE 20:08:40 42° NNE 20:11:33 10° N
BREEZE-M DEB (TANK) 3.5 20:04:35 10° W 20:08:22 38° SW 20:08:22 38° SW
ISS -2.8 20:06:15 10° W 20:08:42 45° W 20:08:42 45° W
USA 215 3.7 20:10:32 19° ENE 20:15:13 58° N 20:21:37 10° W
Cosmos 1891 Rocket 4.4 20:10:59 10° NNW 20:17:09 84° W 20:19:48 37° S
ADEOS Rocket 3.3 20:15:26 46° ESE 20:17:10 60° ENE 20:24:09 10° N
Cosmos 1452 Rocket 4.4 20:12:42 10° SW 20:17:49 49° WNW 20:22:57 10° NNE
Cosmos 1766 4.1 20:17:38 32° SW 20:18:57 48° WNW 20:22:40 10° N
Cosmos 1331 Rocket 4.3 20:14:31 10° SW 20:19:38 63° WNW 20:24:47 10° NNE
Meteor 1-22 Rocket 4.3 20:20:17 50° SSE 20:21:47 68° E 20:27:50 10° NNE
Cosmos 2237 Rocket 3.5 20:17:05 10° NW 20:22:09 35° WSW 20:25:11 21° SSW
Cosmos 1908 Rocket 4.3 20:25:09 43° NE 20:25:09 43° NE 20:28:19 10° NNE
H-2A R/B 2.6 20:23:55 71° SW 20:24:11 74° WSW 20:28:39 10° NNW
Cosmos 1025 Rocket 3.9 20:20:37 10° N 20:23:45 38° NNE 20:23:45 38° NNE
Meteor 1-15 Rocket 4.2 20:24:43 39° S 20:27:02 87° ESE 20:32:58 10° NNE
Cosmos 1340 Rocket 4.1 20:23:25 10° N 20:25:51 32° NNE 20:25:51 32° NNE
Cosmos 2263 Rocket 4.4 20:31:41 11° NE 20:31:41 11° NE 20:31:58 10° NE
Cosmos 2346 Rocket 4.4 20:31:22 36° SSW 20:34:03 86° W 20:40:19 10° N
ATLAS CENTAUR R/B 3.9 20:20:02 10° WSW 20:34:43 87° NNW 20:40:10 18° ENE
SJ 16-02 1.9 20:32:43 10° NNW 20:36:14 52° N 20:36:14 52° N
ARIANE 5 R/B 4.1 20:38:53 26° NNE 20:38:53 26° NNE 20:41:25 10° N
Lacrosse 5 rocket 3.5 20:33:25 10° SW 20:34:34 18° SW 20:34:34 18° SW
Meteor 1-12 Rocket 4.4 20:38:17 33° SSW 20:40:58 74° WNW 20:46:42 10° N
Cosmos 1975 Rocket 4.0 20:36:47 10° N 20:39:54 41° NNE 20:39:54 41° NNE
FALCON 9 R/B 4.4 20:31:23 10° WSW 20:43:43 25° SSW 20:45:16 24° SSW
ERS-1 Rocket 2.9 20:44:49 81° W 20:44:49 81° W 20:49:51 10° NNW
Meteor 1-24 Rocket 4.1 20:40:01 10° NNW 20:45:52 66° W 20:47:15 51° SSW
Cosmos 1816 Rocket 4.3 20:47:04 70° E 20:47:04 70° E 20:53:09 10° NNE
Cosmos 1634 Rocket 4.2 20:42:21 10° N 20:48:28 52° ENE 20:48:28 52° ENE
Ariane Rocket 3.7 20:49:52 43° SW 20:50:42 47° W 20:55:37 10° NNW
Cosmos 1603 4.3 20:45:29 10° NNW 20:51:00 45° NE 20:51:00 45° NE
BREEZE-M DEB (TANK) 3.6 20:45:47 10° WNW 20:50:43 47° SW 20:50:43 47° SW
NOSS 3-4 (A) 4.2 20:55:35 37° NE 20:55:35 37° NE 20:59:19 10° NE
NOSS 3-4 (C) 4.3 20:55:52 35° NE 20:55:52 35° NE 20:59:25 10° NE
Cosmos 1943 3.5 20:49:13 10° NNW 20:54:31 56° NE 20:54:31 56° NE
Spot 2 Rocket 3.8 21:01:35 61° W 21:01:35 61° W 21:06:33 10° NNW
Cosmos 2344 4.3 20:57:07 10° NW 21:05:00 57° NNE 21:08:49 38° E
Cosmos 2297 Rocket 3.3 21:00:29 10° WSW 21:05:52 43° NW 21:11:17 10° NNE
Resurs 01 Rocket 4.3 21:03:49 10° WSW 21:06:02 14° W 21:08:16 10° NW
Cosmos 2034 Rocket 4.1 21:01:01 10° NNW 21:07:10 68° W 21:07:52 63° SW
SPOT 3 Rocket 4.4 21:12:40 42° WSW 21:12:55 42° W 21:17:54 10° NNW
Cosmos 2219 3.3 21:13:55 69° WNW 21:13:56 69° WNW 21:19:35 10° NNE
Tsikada Rocket 4.0 21:15:13 67° NE 21:15:13 67° NE 21:20:38 10° NNE
Meteor 2-19 Rocket 4.4 21:15:20 80° W 21:15:24 80° WNW 21:21:34 10° N
ATLAS 3B R/B 3.5 21:08:36 10° NW 21:15:51 50° NNE 21:17:41 43° ENE
Terra 2.9 21:21:29 42° WNW 21:21:29 42° WNW 21:25:12 10° NNW
CZ-4C R/B 2.9 21:14:16 10° NW 21:21:17 70° SW 21:21:59 67° SSW
Cosmos 2227 Rocket 3.0 21:16:03 10° SW 21:21:34 50° NW 21:27:05 10° NNE
SL-16 R/B 3.5 21:26:39 10° NW 21:31:32 31° WSW 21:31:32 31° WSW
H-2A R/B 4.2 21:49:53 10° N 21:51:45 24° N 21:51:45 24° N
Cosmos 2279 Rocket 4.3 21:51:14 10° NNW 21:56:22 62° NNW 21:56:22 62° NNW
USA 215 3.4 21:57:51 68° NNE 21:57:54 68° NNE 22:04:24 10° WNW
NOSS 3-1 (C) 4.2 21:53:26 10° NW 22:00:11 57° NE 22:00:49 56° NE
ADEOS Rocket 4.3 22:02:21 32° WSW 22:03:09 33° W 22:09:20 10° NNW
Cosmos 2263 Rocket 3.5 22:13:19 34° NNE 22:13:19 34° NNE 22:16:29 10° NNE
SJ 16-02 4.1 22:12:14 10° NW 22:13:08 13° WNW 22:13:08 13° WNW
ATLAS 2AS CENTAUR R/B 3.9 22:29:02 35° ENE 22:29:02 35° ENE 22:33:00 10° NE
ATLAS CENTAUR R/B 3.7 22:40:23 10° W 22:49:44 53° NNW 22:49:44 53° NNW
Cosmos 2082 Rocket 4.0 22:57:56 10° NNW 23:02:28 25° NE 23:02:28 25° NE
NOSS 3-1 (A) 4.2 22:57:26 10° NW 23:03:39 65° N 23:03:39 65° N
ATLAS 3B R/B 3.5 22:59:31 10° NW 23:04:55 49° WNW 23:04:55 49° WNW
Cosmos 1833 Rocket 4.2 23:09:35 10° NNW 23:12:53 34° N 23:12:53 34° N
Cosmos 2344 4.3 23:11:24 10° NW 23:18:50 58° W 23:18:50 58° W
Cosmos 2263 Rocket 4.3 23:54:56 19° NW 23:55:58 19° NNW 23:59:57 10° NNE
